GFSMW_con_3kmhel_057.txt.gz
Helicity
93 122 125 119 -3 -2 76 125 121 181 272 261 311 193 188 395 516 378 187 83 74 180 110 91 94 77 88 60 93 128 118 121 136 127 105 94 99 123 135 136 118 128 127
137 144 152 127 116 68 -3 69 108 140 173 126 72 170 200 312 455 280 102 69 80 72 43 48 63 78 99 98 122 154 167 136 167 161 154 127 150 161 155 198 190 158 163
127 138 158 133 132 115 111 110 115 92 -15 -1 -0 50 50 165 123 105 -156 -92 -22 7 25 6 85 85 115 116 130 145 155 175 175 214 204 179 162 176 210 193 240 176 190
105 117 128 105 93 74 61 53 50 60 11 -18 -70 -74 9 20 -12 -70 -136 -118 -71 -54 -36 -3 78 107 122 127 136 170 197 221 210 238 233 305 303 192 251 218 192 187 192
161 166 161 124 82 40 28 15 -7 7 -0 -53 -59 -53 -67 -34 -76 -102 -132 -152 -173 -133 -98 -66 -25 83 137 132 146 181 206 242 228 282 300 284 326 363 412 188 242 257 175
128 125 106 75 81 42 5 -8 2 -28 -9 -38 -29 -68 -129 -175 -192 -185 -222 -218 -186 -133 -99 -82 -52 -4 65 203 151 152 201 162 136 185 265 311 332 386 314 285 240 228 174
140 130 185 189 142 113 57 8 -7 -21 -6 9 7 -25 -97 -193 -183 -151 -146 -146 -151 -133 -85 -78 -35 29 100 166 252 137 184 210 179 220 236 350 384 274 247 259 241 220 202
156 185 206 219 231 182 123 92 52 -3 -21 1 6 -7 -64 -107 -114 -107 -74 -125 -124 -93 -92 -39 26 82 191 209 165 145 159 202 229 252 316 357 266 280 339 263 287 260 228
196 169 205 231 238 226 205 179 99 39 23 -14 -51 -55 -73 -56 -32 -59 -77 -109 -111 -99 4 25 67 135 149 162 161 182 208 240 242 306 328 343 327 247 301 253 258 348 252
184 171 171 225 241 266 231 216 177 97 64 48 34 26 30 12 24 22 24 3 -27 35 65 83 110 151 173 226 210 225 244 263 290 322 350 340 334 375 292 297 275 283 292
224 256 262 274 303 251 245 213 211 200 136 146 137 110 131 164 135 116 117 180 173 160 191 109 110 85 107 149 226 265 259 281 323 356 347 361 338 255 316 264 276 265 207
183 242 276 315 360 364 338 363 337 340 252 128 115 168 150 88 114 131 191 261 253 115 138 160 141 104 179 194 222 277 283 329 335 349 335 346 313 217 261 286 298 228 193
62 141 177 229 284 339 376 414 458 500 487 369 164 71 60 125 200 240 277 142 244 104 74 125 173 216 243 224 232 258 295 331 360 362 342 295 265 265 340 306 286 192 205
40 94 174 174 184 199 277 327 373 437 491 490 379 286 249 247 276 323 323 243 140 282 304 199 199 237 253 260 267 302 322 341 335 333 331 276 304 306 308 289 275 198 198
80 113 151 128 142 169 174 214 241 324 385 415 380 318 320 339 294 291 277 239 233 264 296 303 283 289 267 298 321 348 352 376 382 340 368 309 314 354 335 344 265 220 251
108 132 147 157 143 168 190 238 234 273 362 387 386 387 427 397 299 229 286 325 335 314 310 314 327 287 298 311 337 363 378 378 348 348 332 371 442 412 358 345 282 244 240
63 95 230 179 208 192 224 232 237 292 328 376 409 461 427 342 275 335 322 320 354 364 341 336 330 337 329 324 341 372 371 353 324 356 412 484 426 385 348 312 254 212 184
35 74 168 194 199 266 264 318 349 365 314 345 319 338 355 360 334 316 347 389 367 379 365 377 376 388 355 325 362 394 385 413 460 468 455 441 392 362 300 257 235 200 173
91 99 125 258 321 296 329 396 399 419 380 347 309 331 390 417 383 366 391 397 415 424 405 371 382 360 384 389 412 460 498 507 501 471 429 391 357 305 261 253 232 197 168
99 167 218 284 274 314 381 403 406 409 400 385 377 379 377 365 382 378 385 373 374 380 406 422 416 434 464 443 451 459 457 473 466 434 396 372 331 309 274 240 229 225 200
134 202 224 229 211 281 363 385 398 403 411 392 345 310 291 308 351 397 380 383 402 456 498 566 562 556 480 456 435 399 400 415 442 411 383 340 306 272 255 220 204 226 179
187 216 212 187 205 285 350 368 362 388 385 384 361 332 311 311 360 408 400 383 426 477 506 544 592 595 580 528 489 458 420 366 391 379 319 276 254 228 203 226 226 197 161
135 168 199 233 251 280 303 342 339 400 415 404 377 362 383 382 374 373 409 445 446 454 461 502 524 538 531 509 490 475 436 383 332 266 241 228 182 194 214 215 194 173 141
163 219 224 214 248 267 294 311 362 361 373 376 364 385 418 438 434 440 424 424 421 433 442 458 495 489 479 465 434 393 349 290 259 231 232 247 258 214 212 185 178 167 163
152 197 219 257 278 285 293 292 324 374 391 409 420 449 468 488 528 539 457 454 439 369 418 427 445 478 485 458 423 379 346 298 258 295 263 263 263 239 204 187 170 168 162
193 264 275 294 308 305 307 318 336 370 412 412 423 436 457 465 472 515 598 601 470 441 452 453 473 514 466 422 446 474 363 272 219 258 267 251 214 191 191 200 186 164 167

GFSMW_con_3kmhel_063.txt.gz
Helicity
62 65 65 80 66 -15 62 67 141 127 142 189 177 145 123 -73 -7 49 -43 -4 57 51 74 92 84 61 57 57 64 63 45 69 68 74 56 47 38 35 48 58 66 64 77
94 84 70 56 63 10 46 43 84 137 138 157 101 171 108 -64 47 5 107 78 63 114 87 78 91 61 27 57 62 71 79 63 96 83 83 52 43 53 75 98 101 90 117
119 89 70 58 74 105 76 59 82 87 182 149 260 285 220 206 130 74 142 214 53 67 96 78 106 64 59 85 56 44 23 74 103 111 86 50 31 52 68 68 101 101 128
121 104 93 72 67 85 108 133 78 90 116 190 227 101 198 222 133 183 194 149 66 109 133 163 176 57 69 68 62 44 60 105 101 126 125 139 145 81 59 78 109 109 93
141 124 112 74 63 43 96 124 136 134 78 98 70 126 147 113 176 228 176 131 137 138 225 243 94 37 49 70 52 83 81 91 138 149 185 142 152 169 187 139 140 169 118
92 90 100 73 59 53 43 99 131 116 133 112 68 39 35 38 92 140 78 5 -7 48 236 205 82 53 59 45 53 53 73 101 134 167 162 166 176 145 188 199 116 178 147
78 91 131 121 88 83 84 79 114 85 72 60 70 29 31 7 23 52 14 -54 7 36 7 99 53 43 33 33 43 53 81 112 153 143 143 151 134 122 183 181 160 177 184
87 94 111 109 117 108 104 91 88 73 73 62 41 18 3 -5 -54 -32 -59 -20 -6 39 80 38 3 -11 9 16 16 34 51 80 193 166 252 175 127 160 178 234 251 212 177
93 97 88 87 86 111 113 107 101 89 78 49 30 4 -33 -43 -51 -42 -65 -61 -87 -27 -72 -10 -23 -23 -21 -3 15 31 26 75 143 171 116 143 163 171 182 225 217 242 259
40 43 69 73 88 101 104 114 99 119 125 92 50 27 17 -13 -29 -73 -51 -26 -50 -58 -39 -33 -27 -24 -0 9 28 28 60 91 145 143 129 146 194 189 210 215 263 275 259
32 48 56 46 66 99 123 123 128 117 114 119 110 82 63 42 25 6 2 7 -16 -35 -56 -48 -35 -4 55 75 73 49 54 73 96 158 173 164 170 235 272 283 285 295 293
26 60 57 73 89 105 138 148 132 131 155 157 147 138 114 94 60 29 27 75 72 77 72 33 19 68 117 129 142 110 134 177 183 191 143 165 231 242 293 333 320 309 362
52 32 51 50 57 78 123 151 174 182 179 168 188 187 178 171 158 135 103 79 61 42 64 78 104 102 147 187 153 183 203 193 172 202 163 242 267 299 379 379 400 357 360
41 65 51 46 64 89 113 134 155 151 174 190 172 197 236 235 193 151 177 176 185 127 119 127 123 133 166 209 206 208 191 290 181 238 273 276 265 332 374 402 444 470 360
42 49 71 54 74 62 77 88 82 116 137 134 147 219 284 235 209 193 210 221 187 171 189 159 122 137 125 146 204 215 204 242 258 260 261 267 288 338 382 477 482 457 378
55 36 49 59 61 103 92 70 82 111 125 148 151 128 175 224 256 230 217 208 184 171 179 170 150 147 185 184 244 230 248 272 280 304 297 326 354 420 513 565 515 401 348
44 48 68 103 60 95 162 133 155 175 178 144 116 142 164 198 203 186 154 177 201 176 172 173 172 226 241 250 241 267 285 294 313 356 429 499 520 594 662 591 529 487 457
57 44 56 74 78 74 99 134 136 167 182 161 170 183 196 181 186 184 170 154 158 173 181 189 260 248 254 239 263 298 326 358 369 415 463 560 594 556 437 540 470 450 407
41 67 82 75 65 58 65 100 140 133 151 153 143 159 165 172 184 172 145 224 246 260 304 322 284 269 250 249 336 444 453 494 543 534 562 590 523 484 421 459 457 432 415
51 24 35 40 47 69 73 97 136 173 167 166 150 146 172 222 288 320 275 268 289 325 311 320 285 266 296 338 421 469 540 636 647 670 523 473 467 402 397 426 412 404 373
111 20 66 8 8 33 40 82 97 89 191 249 225 214 222 254 269 323 295 314 333 358 380 408 403 383 376 407 420 427 504 551 531 502 463 428 392 392 406 400 405 384 336
107 127 119 92 118 95 52 40 86 196 217 214 236 259 316 341 310 301 304 303 328 371 391 429 501 551 549 510 486 454 388 342 359 376 387 369 348 381 403 394 386 362 332
-74 -79 29 105 97 163 250 180 164 188 264 307 307 353 368 321 324 314 294 315 343 384 439 503 571 605 578 535 440 423 447 421 397 354 315 313 336 379 423 392 352 328 331
-6 -104 -32 145 250 294 221 148 126 183 207 223 230 245 265 290 283 277 262 276 311 345 358 372 375 372 439 390 441 441 468 494 507 472 418 394 369 341 296 288 307 271 235
176 157 -20 100 275 279 317 242 98 78 126 153 156 176 243 264 328 395 340 318 310 254 273 285 261 282 343 356 396 417 437 422 390 354 326 289 258 244 246 234 228 233 227
114 61 57 -28 67 198 210 259 213 126 109 204 154 186 226 263 295 337 427 417 307 332 362 387 376 385 360 355 350 325 299 276 262 273 256 267 253 242 227 225 228 211 196

GFSMW_con_3kmhel_069.txt.gz
Helicity
100 158 127 150 165 214 103 29 85 59 56 54 66 110 164 263 347 259 227 281 -63 -40 61 66 99 49 88 64 52 43 57 67 50 39 44 37 40 45 42 45 44 38 53
111 137 140 124 139 119 51 6 47 62 68 40 57 69 136 186 158 126 116 21 -24 14 48 35 40 130 79 45 60 59 80 55 58 36 36 43 44 37 44 58 53 63 74
99 129 133 123 110 63 59 41 62 45 50 29 66 75 93 91 107 117 70 69 48 72 89 61 70 17 39 44 59 61 35 39 54 1 51 45 31 71 57 50 78 100 109
79 117 123 127 117 79 72 72 77 33 39 96 79 120 101 134 115 109 70 98 84 79 137 41 28 53 41 25 36 46 28 21 56 44 51 39 46 53 74 33 31 58 99
99 103 106 103 122 118 87 92 90 75 75 67 108 119 111 52 155 122 148 106 9 -29 -25 38 105 80 103 71 63 50 42 55 95 96 69 34 35 40 63 86 129 97 102
82 85 94 97 91 115 97 103 135 135 148 153 92 90 74 92 149 109 111 111 157 127 92 62 60 72 42 30 41 103 141 77 97 65 90 72 50 45 61 74 78 124 155
84 100 105 97 104 109 93 89 141 146 172 183 112 52 62 135 150 175 149 213 153 173 109 60 89 80 107 -9 160 188 144 33 91 71 85 71 85 76 83 108 123 171 161
94 99 102 76 88 104 82 75 92 123 155 179 168 110 66 10 42 57 100 116 164 132 73 86 55 44 81 80 107 174 75 91 103 78 57 64 88 100 120 173 231 178 191
90 116 118 75 81 96 81 72 61 61 120 111 116 85 74 102 118 106 93 52 97 124 122 141 57 65 95 31 30 11 71 110 90 49 60 73 104 141 193 206 235 226 180
63 100 98 87 71 86 81 75 49 44 74 91 87 71 52 89 84 109 164 159 97 72 43 105 112 141 82 -16 -39 -72 11 49 68 104 80 66 100 131 165 193 199 205 257
29 52 71 96 82 93 100 87 68 56 64 81 74 69 65 73 54 53 78 87 153 134 143 154 163 140 113 98 84 73 57 28 59 68 91 106 174 194 215 255 265 271 311
19 21 46 77 84 92 99 100 89 71 76 89 77 78 63 45 72 72 65 70 89 100 112 149 170 178 183 150 127 93 107 108 86 94 130 193 263 228 254 275 295 283 219
38 26 31 56 95 95 82 99 113 114 106 101 98 103 103 88 90 77 72 82 80 78 76 85 102 104 112 127 132 145 150 175 160 127 164 290 294 362 365 376 326 324 296
36 29 30 24 42 70 77 86 115 129 139 138 130 136 151 150 147 133 118 118 100 108 114 143 131 91 93 104 102 133 140 139 156 188 241 341 419 390 387 441 412 370 355
18 26 23 30 29 41 38 52 76 112 116 140 149 175 198 147 122 145 165 164 165 166 150 154 158 160 182 192 176 167 170 192 211 256 330 323 318 297 328 392 380 422 446
60 73 107 51 29 36 54 53 63 121 127 109 149 160 164 171 168 182 191 186 178 206 231 228 223 219 223 207 225 205 219 238 257 315 244 244 249 251 273 286 361 487 498
126 134 104 87 108 108 72 46 56 62 117 132 93 120 147 145 148 143 165 173 198 191 204 221 239 250 256 272 295 280 241 265 321 400 380 331 389 361 332 375 554 650 577
125 84 109 96 108 122 108 87 63 76 77 88 116 119 130 143 151 148 132 140 187 207 219 218 234 239 243 246 253 270 267 256 268 301 356 412 446 424 492 580 718 766 800
85 26 64 85 90 111 131 103 85 62 70 100 97 112 178 169 188 223 205 186 207 223 224 221 212 209 186 267 280 308 315 376 465 481 493 495 516 488 559 683 790 797 755
70 70 98 67 105 117 104 116 89 80 67 62 106 64 115 167 189 205 225 229 242 223 264 387 454 468 315 319 250 275 431 492 508 514 515 479 448 445 483 576 652 714 663
78 69 43 54 128 148 160 33 68 130 186 131 130 183 169 143 164 169 189 206 348 545 605 581 541 452 406 367 364 429 459 480 526 514 534 534 571 601 635 678 597 598 540
64 46 34 18 38 139 142 122 113 213 245 197 218 346 467 430 445 384 534 571 552 567 612 528 463 437 470 544 460 444 479 465 517 523 545 560 628 640 590 531 460 388 326
64 79 96 68 21 46 90 134 145 123 166 223 248 254 325 378 418 409 420 457 484 510 461 414 483 429 487 501 482 470 523 499 520 537 540 571 543 534 537 497 336 266 266
117 137 131 127 136 135 114 88 96 52 86 197 289 325 390 455 511 489 495 477 412 401 443 458 524 447 430 409 359 448 505 558 546 508 477 424 364 294 263 267 248 219 204
128 176 189 155 137 110 104 152 180 170 161 173 229 325 395 437 513 558 484 543 535 437 402 386 427 406 475 488 477 455 452 421 411 403 359 336 312 240 191 174 154 136 142
191 200 194 205 206 170 154 152 125 82 138 250 214 74 251 372 426 398 415 444 383 424 470 473 486 547 487 632 664 596 443 337 278 264 264 257 215 187 158 140 147 178 196

GFSMW_con_3kmhel_075.txt.gz
Helicity
255 362 464 470 409 314 270 237 139 16 44 97 111 108 142 278 245 245 172 149 158 117 86 68 91 18 41 75 75 94 85 86 100 114 115 96 73 75 87 113 88 70 73
382 466 498 470 351 274 225 190 81 21 72 29 10 76 104 159 179 151 201 148 150 107 81 103 123 58 70 56 26 135 157 108 104 124 148 133 103 68 44 43 105 114 107
473 451 450 406 311 257 176 135 75 45 57 70 67 37 6 96 182 174 168 103 91 113 82 148 114 34 92 2 21 130 100 149 142 206 172 196 93 91 83 41 27 -1 17
417 454 378 323 258 212 134 119 130 113 79 79 80 104 42 90 35 72 55 87 16 81 85 163 144 102 41 40 156 154 107 176 259 244 215 125 86 116 89 95 57 2 15
401 420 386 275 211 207 149 118 170 174 132 114 89 128 113 67 64 74 55 -1 -3 -17 70 155 100 89 93 99 117 98 79 116 177 240 183 106 69 84 95 62 56 96 71
330 360 333 260 203 190 174 148 152 168 158 184 146 141 107 114 99 65 56 39 42 65 89 62 4 -22 59 49 40 69 82 128 197 190 131 85 88 97 118 99 75 104 93
363 342 366 261 225 199 188 167 170 177 183 217 195 160 124 132 123 100 72 110 46 105 119 154 140 145 95 108 103 108 99 172 256 233 87 92 93 105 96 108 90 90 115
276 313 377 295 247 202 193 162 162 176 206 223 216 171 166 112 84 112 97 118 135 128 135 180 228 166 135 110 135 175 211 286 280 123 37 127 155 172 140 120 130 130 138
226 273 326 300 254 218 184 178 158 160 187 194 222 194 204 196 104 82 66 81 104 99 92 94 131 177 53 76 174 178 210 214 277 187 107 175 177 165 152 163 150 149 118
233 278 272 280 235 217 191 157 172 160 163 161 162 172 193 202 174 126 171 167 136 101 67 98 126 79 68 105 43 44 133 181 207 230 212 218 224 213 195 175 185 228 186
180 224 216 255 251 213 212 183 166 156 148 153 151 141 139 151 154 226 195 184 169 193 222 189 188 197 129 113 154 145 164 110 127 150 209 240 248 241 229 235 227 231 248
114 204 216 247 257 238 212 199 186 167 167 140 150 155 158 141 152 169 222 205 198 205 220 205 217 225 195 180 177 173 186 177 147 173 235 190 286 259 264 270 222 230 260
62 179 182 187 222 226 235 218 201 189 193 211 194 174 160 171 167 154 132 166 187 214 198 213 198 218 226 175 152 160 183 176 190 217 290 265 328 325 313 308 301 295 290
220 89 138 118 193 225 262 249 222 196 156 227 235 233 215 189 173 157 145 159 184 203 248 247 238 217 200 178 160 174 198 191 193 222 271 280 291 295 297 339 327 337 348
224 288 272 218 107 106 184 260 289 278 192 166 263 278 259 233 201 196 192 198 214 215 204 214 220 212 221 219 213 222 233 228 217 228 260 277 301 314 314 340 310 333 381
216 209 165 164 197 261 251 146 84 224 304 243 174 237 291 300 277 236 220 216 208 220 222 220 216 206 216 216 266 265 245 248 256 263 269 272 256 247 277 315 334 383 428
155 176 135 118 123 186 187 208 225 226 132 191 270 260 257 278 309 314 277 255 251 239 222 194 218 225 235 246 238 256 245 234 241 246 247 263 301 312 296 287 462 678 767
102 178 192 163 167 183 258 163 164 213 247 340 252 176 166 200 291 310 299 303 298 289 278 269 233 210 190 201 203 252 273 266 273 291 306 321 303 359 378 505 568 616 621
89 100 127 164 248 314 229 196 144 172 215 240 282 365 236 189 169 255 230 297 339 323 303 282 287 275 212 232 192 229 235 233 228 394 448 408 402 382 487 540 612 692 748
113 44 53 50 114 257 261 226 187 118 141 158 135 163 195 200 216 337 280 169 315 309 316 325 414 468 318 390 310 262 306 330 439 470 457 429 411 459 531 642 724 789 776
130 48 16 33 99 148 141 127 167 225 196 177 127 56 119 148 253 279 326 287 290 339 477 501 502 479 490 428 457 367 353 404 532 548 563 577 570 593 653 661 706 695 649
111 90 13 37 93 126 139 164 203 195 144 121 131 156 93 79 140 218 337 335 345 478 535 498 548 613 636 653 568 505 534 543 606 648 763 834 864 780 775 776 704 648 669
88 100 66 61 91 115 120 122 138 116 84 71 87 110 104 45 16 79 128 229 266 306 428 512 587 543 581 629 727 773 775 827 890 924 1053 1095 909 835 785 713 664 485 499
81 84 87 104 105 114 123 126 140 121 89 86 92 81 75 109 120 88 117 109 79 131 223 299 359 452 399 452 642 639 701 751 644 763 786 803 849 753 507 546 675 671 588
55 55 65 76 98 112 116 129 134 118 92 95 99 114 97 98 116 199 191 125 126 35 -5 46 155 322 413 392 414 319 505 514 503 532 656 510 423 436 504 554 394 259 216
41 45 62 80 95 96 105 114 114 133 120 143 146 170 156 131 119 127 180 396 417 399 378 287 163 189 197 225 207 225 317 353 311 367 348 296 248 234 204 176 161 137 140